Regional Weather Roundup
Issued by NWS

Home | Current Version | Previous Version | Text Only | Print | Product List | Glossary Off
Versions: 1 2 3 4 5 6 7 8 9 10 11 12 13 14 15 16 17 18 19 20 21 22 23 24 25 26 27 28 29 30 31 32 33 34 35 36 37 38 39 40 41 42 43 44 45 46 47 48 49 50

000
ASUS43 KBIS 021802
RWRND

NORTH DAKOTA REGIONAL WEATHER ROUNDUP
NATIONAL WEATHER SERVICE BISMARCK ND
100 PM CDT MON MAY 02 2016

NOTE: "FAIR" INDICATES FEW OR NO CLOUDS BELOW 12,000 FEET WITH NO
SIGNIFICANT WEATHER AND/OR OBSTRUCTIONS TO VISIBILITY.


NDZ001>003-009>011-017-021900-
NORTHWEST NORTH DAKOTA

CITY           SKY/WX    TMP DP  RH WIND       PRES   REMARKS
WILLISTON      SUNNY     71  32  23 N13       30.03R
6HR MIN TEMP:  49; 6HR MAX TEMP:  72;

MINOT          SUNNY     70  35  27 N10G21    29.99S
MINOT AFB      SUNNY     66  40  38 E9G20     29.99R
$$

NDZ018>021-031>035-040>046-021900-
SOUTHWEST NORTH DAKOTA

CITY           SKY/WX    TMP DP  RH WIND       PRES   REMARKS
BISMARCK       PTSUNNY   57  47  69 SE13      30.01S
6HR MIN TEMP:  43; 6HR MAX TEMP:  57; 6HR PCP:  0.05;

DICKINSON      CLOUDY    65  33  30 NW21G30   29.98F
GARRISON         N/A     66  39  37 E8G18     29.97S
6HR MIN TEMP:  50; 6HR MAX TEMP:  66; 6HR PCP:  0.01;

HETTINGER ARPT LGT RAIN  67  36  31 NW22G35   30.02F
$$

NDZ004>008-012>016-024-026-027-054-021900-
NORTHEAST NORTH DAKOTA

CITY           SKY/WX    TMP DP  RH WIND       PRES   REMARKS
GRAND FORKS    MOSUNNY   68  30  24 SE3       30.00F
GRND FRKS AFB  SUNNY     68  28  22 E6        30.00F
DEVILS LAKE    SUNNY     62  37  39 S10       30.02S
$$

NDZ022-023-025-028>030-036>039-047>053-021900-
SOUTHEAST NORTH DAKOTA

CITY           SKY/WX    TMP DP  RH WIND       PRES   REMARKS
FARGO          SUNNY     68  26  20 CALM      30.01F
6HR MIN TEMP:  43; 6HR MAX TEMP:  68;

JAMESTOWN      CLOUDY    55  43  63 S13       30.02S
$$





USA.gov is the U.S. government's official web portal to all federal, state and local government web resources and services.